Regional Weather Roundup
Issued by NWS

Home | Current Version | Previous Version | Graphics & Text | Print | Product List | Glossary Off
Versions: 1 2 3 4 5 6 7 8 9 10 11 12 13 14 15 16 17 18 19 20 21 22 23 24 25 26 27 28 29 30 31 32 33 34 35 36 37 38 39 40 41 42 43 44 45 46 47 48 49 50

969
ASUS43 KTOP 291959
RWRKS

WEATHER ROUNDUP FOR KANSAS
NATIONAL WEATHER SERVICE GOODLAND KS
300 PM CDT FRI JUL 29 2016

NOTE:  "FAIR" INDICATES FEW OR NO CLOUDS BELOW 12,000 FEET WITH NO
SIGNIFICANT WEATHER AND/OR OBSTRUCTIONS TO VISIBILITY.

KSZ001>006-013>018-027>032-041>047-292100-
NORTHWEST KANSAS

CITY           SKY/WX    TMP DP  RH WIND       PRES   REMARKS
GOODLAND       CLOUDY    70  63  78 E12       30.14F
HAYS           SUNNY     84  59  42 N6        30.05S
HILL CITY      SUNNY     84  64  50 S5        30.07F
RUSSELL        PTSUNNY   84  62  47 NE6       30.03F
$$

KSZ061>065-074>080-084>089-292100-
SOUTHWEST KANSAS

CITY           SKY/WX    TMP DP  RH WIND       PRES   REMARKS
DODGE CITY     CLOUDY    79  65  62 S7        30.09S
ELKHART          N/A     82  64  54 SE9         N/A
GARDEN CITY    SUNNY     79  65  62 SE8       30.09F
GREAT BEND     MOSUNNY   81  64  57 W3        30.04F
LIBERAL        CLOUDY    79  63  57 SW14      30.10F
$$

KSZ066>073-081>083-090>101-292100-
SOUTHEAST KANSAS

CITY           SKY/WX    TMP DP  RH WIND       PRES   REMARKS
CHANUTE        MOSUNNY   85  70  60 NW7       29.98F
COFFEYVILLE    MOSUNNY   87  67  51 N10       29.97F
HUTCHINSON     SUNNY     87  65  47 NW9       30.01F
NEWTON         PTSUNNY   82  70  66 NW9       30.02F
PARSONS        PTSUNNY   84  68  58 NW8       29.99F
WICHITA INTL   MOSUNNY   88  67  49 NW7G17    30.01F
WICHITA JABRA  PTSUNNY   87  68  52 N12       30.01F
WINFIELD       MOSUNNY   83  68  60 VRB5      30.01F
$$

KSZ007>012-019>026-033>040-048>060-102>105-292100-
NORTHEAST KANSAS

CITY           SKY/WX    TMP DP  RH WIND       PRES   REMARKS
CONCORDIA      SUNNY     80  64  58 CALM      30.03F
EMPORIA        MOSUNNY   86  66  51 N7        30.00F
LAWRENCE       SUNNY     85  67  54 N9        29.99F
MANHATTAN      CLOUDY    81  68  64 NE6       30.01F
OLATHE IND     MOSUNNY   84  66  54 N13       30.00S
OLATHE EXE     MOSUNNY   85  64  49 NW9       29.99F
SALINA         MOSUNNY   86  66  51 NE6       30.01F
TOPEKA BILLARD MOSUNNY   84  66  54 N7        29.99F
TOPEKA FORBES  PTSUNNY   83  67  58 NE5       30.00F
$$




USA.gov is the U.S. government's official web portal to all federal, state and local government web resources and services.